START_TIME,STEP,MOV.,M6,t_acc.,M7,t_acc.,M19,t_acc.,H36,t_acc.
1979-08-03 09:00:25.850 ,0,0,0.,12.0,0.,12.0,0.,12.0,0.,12.0
1979-08-03 09:00:37.850 ,0,0,0.,12.0,0.,12.0,0.,12.0,0.,12.0
1979-08-03 09:00:49.850 ,0,1,0.,12.0,0.,12.0,0.,12.0,0.,12.0
1979-08-03 09:01:01.850 ,0,1,0.,12.0,0.,12.0,0.,12.0,0.,12.0
1979-08-03 09:01:13.850 ,0,0,0.,12.0,0.,12.0,0.,12.0,0.,12.0
1979-08-03 09:01:25.850 ,0,0,0.,12.0,0.,12.0,0.,12.0,0.,12.0
1979-08-03 09:01:37.850 ,1,1,0.,12.0,0.,12.0,0.,12.0,0.,12.0
1979-08-03 09:01:49.850 ,1,1,0.,12.0,0.,12.0,0.,12.0,0.,12.0
1979-08-03 09:02:01.850 ,1,0,0.,12.0,0.,12.0,0.,12.0,0.,12.0
1979-08-03 09:02:13.850 ,1,0,0.,12.0,0.,12.0,0.,12.0,0.,12.0
1979-08-03 09:02:25.850 ,2,1,0.,12.0,0.,12.0,0.,12.0,0.,12.0
1979-08-03 09:02:37.850 ,2,1,0.,12.0,0.,12.0,0.,12.0,0.,12.0
1979-08-03 09:02:49.850 ,2,0,0.,12.0,0.,12.0,0.,12.0,0.,12.0
1979-08-03 09:03:01.850 ,2,0,0.,12.0,0.,12.0,0.,12.0,0.,12.0
1979-08-03 09:03:13.850 ,3,1,0.,12.0,0.,12.0,0.,12.0,0.,12.0
1979-08-03 09:03:25.850 ,3,1,0.,12.0,0.,12.0,0.,12.0,0.,12.0
1979-08-03 09:03:37.850 ,3,0,0.,12.0,0.,12.0,0.,12.0,0.,12.0
1979-08-03 09:03:49.850 ,3,0,0.,12.0,0.,12.0,0.,12.0,0.,12.0
1979-08-03 09:04:01.850 ,4,1,0.,12.0,0.,12.0,0.,12.0,0.,12.0
1979-08-03 09:04:13.850 ,4,1,0.,12.0,0.,12.0,0.,12.0,0.,12.0
1979-08-03 09:04:25.850 ,4,0,0.,12.0,0.,12.0,0.,12.0,0.,12.0
1979-08-03 09:04:37.850 ,4,0,0.,12.0,0.,12.0,0.,12.0,0.,12.0
1979-08-03 09:04:49.850 ,5,1,0.,12.0,0.,12.0,0.,12.0,0.,12.0
1979-08-03 09:05:01.850 ,5,1,0.,12.0,0.,12.0,0.,12.0,0.,12.0
1979-08-03 09:05:13.850 ,5,0,0.,12.0,0.,12.0,0.,12.0,0.,12.0
1979-08-03 09:05:25.850 ,5,0,0.,12.0,0.,12.0,0.,12.0,0.,12.0
1979-08-03 09:05:37.850 ,6,1,0.,12.0,0.,12.0,0.,12.0,0.,12.0
1979-08-03 09:05:49.850 ,6,1,0.,12.0,0.,12.0,0.,12.0,0.,12.0
1979-08-03 09:06:01.850 ,6,0,0.,12.0,0.,12.0,0.,12.0,0.,12.0
1979-08-03 09:06:13.850 ,6,0,0.,12.0,0.,12.0,0.,12.0,0.,12.0
1979-08-03 09:06:25.850 ,0,0,,0,,0,,0,,0
1979-08-03 09:06:37.850 ,0,0,,0,,0,,0,,0
1979-08-03 09:06:49.850 ,0,0,,0,,0,,0,,0
1979-08-03 09:07:01.850 ,0,0,,0,,0,,0,,0
1979-08-03 09:08:16.850 ,0,0,,0,,0,,0,,0
1979-08-03 09:08:28.850 ,0,0,0.,12.0,0.,12.0,0.,12.0,0.,12.0
1979-08-03 09:08:25.850 ,7,1,0.,12.0,0.,12.0,0.,12.0,0.,12.0
1979-08-03 09:08:37.850 ,7,1,0.,12.0,0.,12.0,0.,12.0,0.,12.0
1979-08-03 09:08:49.850 ,4,1,0.,12.0,0.,12.0,0.,12.0,0.,12.0
1979-08-03 09:09:01.850 ,4,1,0.,12.0,0.,12.0,0.,12.0,0.,12.0
1979-08-03 09:09:13.850 ,0,1,0.,12.0,0.,12.0,0.,12.0,0.,12.0
1979-08-03 09:09:25.850 ,0,1,0.,12.0,0.,12.0,0.,12.0,0.,12.0
1979-08-03 09:09:37.850 ,3,1,0.,12.0,0.,12.0,0.,12.0,0.,12.0
1979-08-03 09:09:49.850 ,3,1,0.,12.0,0.,12.0,0.,12.0,0.,12.0
1979-08-03 09:10:01.850 ,7,1,0.,12.0,0.,12.0,0.,12.0,0.,12.0
1979-08-03 09:10:13.850 ,7,1,0.,12.0,0.,12.0,0.,12.0,0.,12.0
1979-08-03 09:10:25.850 ,4,1,0.,12.0,0.,12.0,0.,12.0,0.,12.0
1979-08-03 09:10:37.850 ,4,1,0.,12.0,0.,12.0,0.,12.0,0.,12.0
1979-08-03 09:10:49.850 ,0,1,0.,12.0,0.,12.0,0.,12.0,0.,12.0
1979-08-03 09:11:01.850 ,0,1,0.,12.0,0.,12.0,0.,12.0,0.,12.0
1979-08-03 09:11:13.850 ,3,1,0.,12.0,0.,12.0,0.,12.0,0.,12.0
1979-08-03 09:11:25.850 ,3,1,0.,12.0,0.,12.0,0.,12.0,0.,12.0
1979-08-03 09:11:37.850 ,7,1,0.,12.0,0.,12.0,0.,12.0,0.,12.0
1979-08-03 09:11:49.850 ,7,1,0.,12.0,0.,12.0,0.,12.0,0.,12.0
1979-08-03 09:12:01.850 ,4,1,0.,12.0,0.,12.0,0.,12.0,0.,12.0
1979-08-03 09:12:13.850 ,4,1,0.,12.0,0.,12.0,0.,12.0,0.,12.0
1979-08-03 09:12:25.850 ,0,1,0.,12.0,0.,12.0,0.,12.0,0.,12.0
1979-08-03 09:12:37.850 ,0,1,0.,12.0,0.,12.0,0.,12.0,0.,12.0
1979-08-03 09:12:49.850 ,3,1,0.,12.0,0.,12.0,0.,12.0,0.,12.0
1979-08-03 09:13:01.850 ,3,1,0.,12.0,0.,12.0,0.,12.0,0.,12.0
1979-08-03 09:13:13.850 ,7,1,0.,12.0,0.,12.0,0.,12.0,0.,12.0
1979-08-03 09:13:25.850 ,7,1,0.,12.0,0.,12.0,0.,12.0,0.,12.0
1979-08-03 09:13:37.850 ,4,1,0.,12.0,0.,12.0,0.,12.0,0.,12.0
1979-08-03 09:13:49.850 ,4,1,0.,12.0,0.,12.0,0.,12.0,0.,12.0
1979-08-03 09:14:01.850 ,0,1,0.,12.0,0.,12.0,0.,12.0,0.,12.0
1979-08-03 09:14:13.850 ,0,1,0.,12.0,0.,12.0,0.,12.0,0.,12.0
1979-08-03 09:14:25.850 ,3,1,0.,12.0,0.,12.0,0.,12.0,0.,12.0
1979-08-03 09:14:37.850 ,3,1,0.,12.0,0.,12.0,0.,12.0,0.,12.0
1979-08-03 09:14:49.850 ,7,1,0.,12.0,0.,12.0,0.,12.0,0.,12.0
1979-08-03 09:15:01.850 ,7,1,0.,12.0,0.,12.0,0.,12.0,0.,12.0
1979-08-03 09:15:13.850 ,4,1,0.,12.0,0.,12.0,0.,12.0,0.,12.0
1979-08-03 09:15:25.850 ,4,1,0.,12.0,0.,12.0,0.,12.0,0.,12.0
1979-08-03 09:15:37.850 ,0,1,0.,12.0,0.,12.0,0.,12.0,0.,12.0
1979-08-03 09:15:49.850 ,0,1,0.,12.0,0.,12.0,0.,12.0,0.,12.0
1979-08-03 09:16:01.850 ,3,1,0.,12.0,0.,12.0,0.,12.0,0.,12.0
1979-08-03 09:16:13.850 ,3,1,0.,12.0,0.,12.0,0.,12.0,0.,12.0
1979-08-03 09:16:25.850 ,7,1,0.,12.0,0.,12.0,0.,12.0,0.,12.0
1979-08-03 09:16:37.850 ,7,1,0.,12.0,0.,12.0,0.,12.0,0.,12.0
1979-08-03 09:16:49.850 ,4,1,0.,12.0,0.,12.0,0.,12.0,0.,12.0
1979-08-03 09:17:01.850 ,4,1,0.,12.0,0.,12.0,0.,12.0,0.,12.0
1979-08-03 09:17:13.850 ,0,1,0.,12.0,0.,12.0,0.,12.0,0.,12.0
1979-08-03 09:17:25.850 ,0,1,0.,12.0,0.,12.0,0.,12.0,0.,12.0
1979-08-03 09:17:37.850 ,0,0,0.,12.0,0.,12.0,0.,12.0,0.,12.0
1979-08-03 09:17:49.850 ,0,0,0.,12.0,0.,12.0,0.,12.0,0.,12.0
1979-08-03 09:18:01.850 ,0,0,0.,12.0,0.,12.0,0.,12.0,0.,12.0
1979-08-03 09:18:13.850 ,0,0,0.,12.0,0.,12.0,0.,12.0,0.,12.0
1979-08-03 09:18:25.850 ,5,1,0.,12.0,0.,12.0,0.,12.0,0.,12.0
1979-08-03 09:18:37.850 ,5,1,0.,12.0,0.,12.0,0.,12.0,0.,12.0
1979-08-03 09:18:49.850 ,5,0,0.,12.0,0.,12.0,0.,12.0,0.,12.0
1979-08-03 09:19:01.850 ,5,0,0.,12.0,0.,12.0,0.,12.0,0.,12.0
1979-08-03 09:19:13.850 ,4,1,0.,12.0,0.,12.0,0.,12.0,0.,12.0
1979-08-03 09:19:25.850 ,4,1,0.,12.0,0.,12.0,0.,12.0,0.,12.0
1979-08-03 09:19:37.850 ,4,0,0.,12.0,0.,12.0,0.,12.0,0.,12.0
1979-08-03 09:19:49.850 ,4,0,0.,12.0,0.,12.0,0.,12.0,0.,12.0
1979-08-03 09:20:01.850 ,3,1,0.,12.0,0.,12.0,0.,12.0,0.,12.0
1979-08-03 09:20:13.850 ,3,1,0.,12.0,0.,12.0,0.,12.0,0.,12.0
1979-08-03 09:20:25.850 ,3,0,0.,12.0,0.,12.0,0.,12.0,0.,12.0
1979-08-03 09:20:37.850 ,3,0,0.,12.0,0.,12.0,0.,12.0,0.,12.0
1979-08-03 09:20:49.850 ,2,1,0.,12.0,0.,12.0,0.,12.0,0.,12.0
1979-08-03 09:21:01.850 ,2,1,0.,12.0,0.,12.0,0.,12.0,0.,12.0
1979-08-03 09:21:13.850 ,2,0,0.,12.0,0.,12.0,0.,12.0,0.,12.0
1979-08-03 09:21:25.850 ,2,0,0.,12.0,0.,12.0,0.,12.0,0.,12.0
1979-08-03 09:21:37.850 ,1,1,0.,12.0,0.,12.0,0.,12.0,0.,12.0
1979-08-03 09:21:49.850 ,1,1,0.,12.0,0.,12.0,0.,12.0,0.,12.0
1979-08-03 09:22:01.850 ,1,0,0.,12.0,0.,12.0,0.,12.0,0.,12.0
1979-08-03 09:22:13.850 ,1,0,0.,12.0,0.,12.0,0.,12.0,0.,12.0
1979-08-03 09:22:25.850 ,0,1,0.,12.0,0.,12.0,0.,12.0,0.,12.0
1979-08-03 09:22:37.850 ,0,1,0.,12.0,0.,12.0,0.,12.0,0.,12.0
1979-08-03 09:22:49.850 ,0,0,0.,12.0,0.,12.0,0.,12.0,0.,12.0
1979-08-03 09:23:01.850 ,0,0,0.,12.0,0.,12.0,0.,12.0,0.,12.0
1979-08-03 09:23:13.850 ,0,1,0.,12.0,0.,12.0,0.,12.0,0.,12.0
1979-08-03 09:23:25.850 ,0,1,0.,12.0,0.,12.0,0.,12.0,0.,12.0
1979-08-03 09:23:37.850 ,0,0,0.,12.0,0.,12.0,0.,12.0,0.,12.0
1979-08-03 09:23:49.850 ,0,0,0.,12.0,0.,12.0,0.,12.0,0.,12.0
1979-08-03 09:24:01.850 ,1,1,0.,12.0,0.,12.0,0.,12.0,0.,12.0
1979-08-03 09:24:13.850 ,1,1,0.,12.0,0.,12.0,0.,12.0,0.,12.0
1979-08-03 09:24:25.850 ,1,0,0.,12.0,0.,12.0,0.,12.0,0.,12.0
1979-08-03 09:24:37.850 ,1,0,0.,12.0,0.,12.0,0.,12.0,0.,12.0
1979-08-03 09:24:49.850 ,2,1,0.,12.0,0.,12.0,0.,12.0,0.,12.0
1979-08-03 09:25:01.850 ,2,1,0.,12.0,0.,12.0,0.,12.0,0.,12.0
1979-08-03 09:25:13.850 ,2,0,0.,12.0,0.,12.0,0.,12.0,0.,12.0
1979-08-03 09:25:25.850 ,2,0,0.,12.0,0.,12.0,0.,12.0,0.,12.0
1979-08-03 09:25:37.850 ,3,1,0.,12.0,0.,12.0,0.,12.0,0.,12.0
1979-08-03 09:25:49.850 ,3,1,0.,12.0,0.,12.0,0.,12.0,0.,12.0
1979-08-03 09:26:01.850 ,3,0,0.,12.0,0.,12.0,0.,12.0,0.,12.0
1979-08-03 09:26:13.850 ,3,0,0.,12.0,0.,12.0,0.,12.0,0.,12.0
1979-08-03 09:26:25.850 ,4,1,0.,12.0,0.,12.0,0.,12.0,0.,12.0
1979-08-03 09:26:37.850 ,4,1,0.,12.0,0.,12.0,0.,12.0,0.,12.0
1979-08-03 09:26:49.850 ,4,0,0.,12.0,0.,12.0,0.,12.0,0.,12.0
1979-08-03 09:27:01.850 ,4,0,0.,12.0,0.,12.0,0.,12.0,0.,12.0
1979-08-03 09:27:13.850 ,5,1,0.,12.0,0.,12.0,0.,12.0,0.,12.0
1979-08-03 09:27:25.850 ,5,1,0.,12.0,0.,12.0,0.,12.0,0.,12.0
1979-08-03 09:27:37.850 ,5,0,0.,12.0,0.,12.0,0.,12.0,0.,12.0
1979-08-03 09:27:49.850 ,5,0,0.,12.0,0.,12.0,0.,12.0,0.,12.0
1979-08-03 09:28:01.850 ,6,1,0.,12.0,0.,12.0,0.,12.0,0.,12.0
1979-08-03 09:28:13.850 ,6,1,0.,12.0,0.,12.0,0.,12.0,0.,12.0
1979-08-03 09:28:25.850 ,6,0,0.,12.0,0.,12.0,0.,12.0,0.,12.0
1979-08-03 09:28:37.850 ,6,0,0.,12.0,0.,12.0,0.,12.0,0.,12.0
1979-08-03 09:28:49.850 ,7,1,0.,12.0,0.,12.0,0.,12.0,0.,12.0
1979-08-03 09:29:01.850 ,7,1,0.,12.0,0.,12.0,0.,12.0,0.,12.0
1979-08-03 09:29:13.850 ,7,0,0.,12.0,0.,12.0,0.,12.0,0.,12.0
1979-08-03 09:29:25.850 ,7,0,0.,12.0,0.,12.0,0.,12.0,0.,12.0
1979-08-03 09:29:37.850 ,7,1,0.,12.0,0.,12.0,0.,12.0,0.,12.0
1979-08-03 09:29:49.850 ,7,1,0.,12.0,0.,12.0,0.,12.0,0.,12.0
1979-08-03 09:30:01.850 ,7,0,0.,12.0,0.,12.0,0.,12.0,0.,12.0
1979-08-03 09:30:13.850 ,7,0,0.,12.0,0.,12.0,0.,12.0,0.,12.0
1979-08-03 09:30:25.850 ,6,1,0.,12.0,0.,12.0,0.,12.0,0.,12.0
1979-08-03 09:30:37.850 ,6,1,0.,12.0,0.,12.0,0.,12.0,0.,12.0
1979-08-03 09:30:49.850 ,6,0,0.,12.0,0.,12.0,0.,12.0,0.,12.0
1979-08-03 09:31:01.850 ,6,0,0.,12.0,0.,12.0,0.,12.0,0.,12.0
1979-08-03 09:31:13.850 ,5,1,0.,12.0,0.,12.0,0.,12.0,0.,12.0
1979-08-03 09:31:25.850 ,5,1,0.,12.0,0.,12.0,0.,12.0,0.,12.0
1979-08-03 09:31:37.850 ,5,0,0.,12.0,0.,12.0,0.,12.0,0.,12.0
1979-08-03 09:31:49.850 ,5,0,0.,12.0,0.,12.0,0.,12.0,0.,12.0
1979-08-03 09:32:01.850 ,4,1,0.,12.0,0.,12.0,0.,12.0,0.,12.0
1979-08-03 09:32:13.850 ,4,1,0.,12.0,0.,12.0,0.,12.0,0.,12.0
1979-08-03 09:32:25.850 ,4,0,0.,12.0,0.,12.0,0.,12.0,0.,12.0
1979-08-03 09:32:37.850 ,4,0,0.,12.0,0.,12.0,0.,12.0,0.,12.0
1979-08-03 09:32:49.850 ,3,1,0.,12.0,0.,12.0,0.,12.0,0.,12.0
1979-08-03 09:33:01.850 ,3,1,0.,12.0,0.,12.0,0.,12.0,0.,12.0
1979-08-03 09:33:13.850 ,3,0,0.,12.0,0.,12.0,0.,12.0,0.,12.0
1979-08-03 09:33:25.850 ,3,0,0.,12.0,0.,12.0,0.,12.0,0.,12.0
1979-08-03 09:33:37.850 ,2,1,0.,12.0,0.,12.0,0.,12.0,0.,12.0
1979-08-03 09:33:49.850 ,2,1,0.,12.0,0.,12.0,0.,12.0,0.,12.0
1979-08-03 09:34:01.850 ,2,0,0.,12.0,0.,12.0,0.,12.0,0.,12.0
1979-08-03 09:34:13.850 ,2,0,0.,12.0,0.,12.0,0.,12.0,0.,12.0
1979-08-03 09:34:25.850 ,1,1,0.,12.0,0.,12.0,0.,12.0,0.,12.0
1979-08-03 09:34:37.850 ,1,1,0.,12.0,0.,12.0,0.,12.0,0.,12.0
1979-08-03 09:34:49.850 ,1,0,0.,12.0,0.,12.0,0.,12.0,0.,12.0
1979-08-03 09:35:01.850 ,1,0,0.,12.0,0.,12.0,0.,12.0,0.,12.0
1979-08-03 09:35:13.850 ,0,1,0.,12.0,0.,12.0,0.,12.0,0.,12.0
1979-08-03 09:35:25.850 ,0,1,0.,12.0,0.,12.0,0.,12.0,0.,12.0
1979-08-03 09:35:37.850 ,0,0,0.,12.0,0.,12.0,0.,12.0,0.,12.0
1979-08-03 09:35:49.850 ,0,0,0.,12.0,0.,12.0,0.,12.0,0.,12.0
1979-08-03 09:36:01.850 ,0,1,0.,12.0,0.,12.0,0.,12.0,0.,12.0
1979-08-03 09:36:13.850 ,0,1,0.,12.0,0.,12.0,0.,12.0,0.,12.0
1979-08-03 09:36:25.850 ,0,0,0.,12.0,0.,12.0,0.,12.0,0.,12.0
1979-08-03 09:36:37.850 ,0,0,0.,12.0,0.,12.0,0.,12.0,0.,12.0
1979-08-03 09:36:49.850 ,1,1,0.,12.0,0.,12.0,0.,12.0,0.,12.0
1979-08-03 09:37:01.850 ,1,1,0.,12.0,0.,12.0,0.,12.0,0.,12.0
1979-08-03 09:37:13.850 ,1,0,0.,12.0,0.,12.0,0.,12.0,0.,12.0
1979-08-03 09:37:25.850 ,1,0,0.,12.0,0.,12.0,0.,12.0,0.,12.0
1979-08-03 09:37:37.850 ,2,1,0.,12.0,0.,12.0,0.,12.0,0.,12.0
1979-08-03 09:37:49.850 ,2,1,0.,12.0,0.,12.0,0.,12.0,0.,12.0
1979-08-03 09:38:01.850 ,2,0,0.,12.0,0.,12.0,0.,12.0,0.,12.0
1979-08-03 09:38:13.850 ,2,0,0.,12.0,0.,12.0,0.,12.0,0.,12.0
1979-08-03 09:38:25.850 ,3,1,0.,12.0,0.,12.0,0.,12.0,0.,12.0
1979-08-03 09:38:37.850 ,3,1,0.,12.0,0.,12.0,0.,12.0,0.,12.0
1979-08-03 09:38:49.850 ,3,0,0.,12.0,0.,12.0,0.,12.0,0.,12.0
1979-08-03 09:39:01.850 ,3,0,0.,12.0,0.,12.0,0.,12.0,0.,12.0
1979-08-03 09:39:13.850 ,4,1,0.,12.0,0.,12.0,0.,12.0,0.,12.0
1979-08-03 09:39:25.850 ,4,1,0.,12.0,0.,12.0,0.,12.0,0.,12.0
1979-08-03 09:39:37.850 ,4,0,0.,12.0,0.,12.0,0.,12.0,0.,12.0
1979-08-03 09:39:49.850 ,4,0,0.,12.0,0.,12.0,0.,12.0,0.,12.0
1979-08-03 09:40:01.850 ,5,1,0.,12.0,0.,12.0,0.,12.0,0.,12.0
1979-08-03 09:40:13.850 ,5,1,0.,12.0,0.,12.0,0.,12.0,0.,12.0
1979-08-03 09:40:25.850 ,5,0,0.,12.0,0.,12.0,0.,12.0,0.,12.0
1979-08-03 09:40:37.850 ,5,0,0.,12.0,0.,12.0,0.,12.0,0.,12.0
1979-08-03 09:40:49.850 ,6,1,0.,12.0,0.,12.0,0.,12.0,0.,12.0
1979-08-03 09:41:01.850 ,6,1,0.,12.0,0.,12.0,0.,12.0,0.,12.0
1979-08-03 09:41:13.850 ,6,0,0.,12.0,0.,12.0,0.,12.0,0.,12.0
1979-08-03 09:41:25.850 ,6,0,0.,12.0,0.,12.0,0.,12.0,0.,12.0
1979-08-03 09:41:37.850 ,7,1,0.,12.0,0.,12.0,0.,12.0,0.,12.0
1979-08-03 09:41:49.850 ,7,1,0.,12.0,0.,12.0,0.,12.0,0.,12.0
1979-08-03 09:42:01.850 ,7,0,0.,12.0,0.,12.0,0.,12.0,0.,12.0
1979-08-03 09:42:13.850 ,7,0,0.,12.0,0.,12.0,0.,12.0,0.,12.0
1979-08-03 09:42:25.850 ,7,1,0.,12.0,0.,12.0,0.,12.0,0.,12.0
1979-08-03 09:42:37.850 ,7,1,0.,12.0,0.,12.0,0.,12.0,0.,12.0
1979-08-03 09:42:49.850 ,7,0,0.,12.0,0.,12.0,0.,12.0,0.,12.0
1979-08-03 09:43:01.850 ,7,0,0.,12.0,0.,12.0,0.,12.0,0.,12.0
1979-08-03 09:43:13.850 ,6,1,0.,12.0,0.,12.0,0.,12.0,0.,12.0
1979-08-03 09:43:25.850 ,6,1,0.,12.0,0.,12.0,0.,12.0,0.,12.0
1979-08-03 09:43:37.850 ,6,0,0.,12.0,0.,12.0,0.,12.0,0.,12.0
1979-08-03 09:43:49.850 ,6,0,0.,12.0,0.,12.0,0.,12.0,0.,12.0
1979-08-03 09:44:01.850 ,5,1,0.,12.0,0.,12.0,0.,12.0,0.,12.0
1979-08-03 09:44:13.850 ,5,1,0.,12.0,0.,12.0,0.,12.0,0.,12.0
1979-08-03 09:44:25.850 ,5,0,0.,12.0,0.,12.0,0.,12.0,0.,12.0
1979-08-03 09:44:37.850 ,5,0,0.,12.0,0.,12.0,0.,12.0,0.,12.0
1979-08-03 09:44:49.850 ,4,1,0.,12.0,0.,12.0,0.,12.0,0.,12.0
1979-08-03 09:45:01.850 ,4,1,0.,12.0,0.,12.0,0.,12.0,0.,12.0
1979-08-03 09:45:13.850 ,4,0,0.,12.0,0.,12.0,0.,12.0,0.,12.0
1979-08-03 09:45:25.850 ,4,0,0.,12.0,0.,12.0,0.,12.0,0.,12.0
1979-08-03 09:45:37.850 ,3,1,0.,12.0,0.,12.0,0.,12.0,0.,12.0
1979-08-03 09:45:49.850 ,3,1,0.,12.0,0.,12.0,0.,12.0,0.,12.0
1979-08-03 09:46:01.850 ,3,0,0.,12.0,0.,12.0,0.,12.0,0.,12.0
1979-08-03 09:46:13.850 ,3,0,0.,12.0,0.,12.0,0.,12.0,0.,12.0
1979-08-03 09:46:25.850 ,2,1,0.,12.0,0.,12.0,0.,12.0,0.,12.0
1979-08-03 09:46:37.850 ,2,1,0.,12.0,0.,12.0,0.,12.0,0.,12.0
1979-08-03 09:46:49.850 ,2,0,0.,12.0,0.,12.0,0.,12.0,0.,12.0
1979-08-03 09:47:01.850 ,2,0,0.,12.0,0.,12.0,0.,12.0,0.,12.0
1979-08-03 09:47:13.850 ,1,1,0.,12.0,0.,12.0,0.,12.0,0.,12.0
1979-08-03 09:47:25.850 ,1,1,0.,12.0,0.,12.0,0.,12.0,0.,12.0
1979-08-03 09:47:37.850 ,1,0,0.,12.0,0.,12.0,0.,12.0,0.,12.0
1979-08-03 09:47:49.850 ,1,0,0.,12.0,0.,12.0,0.,12.0,0.,12.0
1979-08-03 09:48:01.850 ,0,1,0.,12.0,0.,12.0,0.,12.0,0.,12.0
1979-08-03 09:48:13.850 ,0,1,0.,12.0,0.,12.0,0.,12.0,0.,12.0
1979-08-03 09:48:25.850 ,0,0,0.,12.0,0.,12.0,0.,12.0,0.,12.0
1979-08-03 09:48:37.850 ,0,0,0.,12.0,0.,12.0,0.,12.0,0.,12.0
1979-08-03 09:48:49.850 ,0,1,0.,12.0,0.,12.0,0.,12.0,0.,12.0
1979-08-03 09:49:01.850 ,0,1,0.,12.0,0.,12.0,0.,12.0,0.,12.0
1979-08-03 09:49:13.850 ,0,0,0.,12.0,0.,12.0,0.,12.0,0.,12.0
1979-08-03 09:49:25.850 ,0,0,0.,12.0,0.,12.0,0.,12.0,0.,12.0
1979-08-03 09:49:37.850 ,1,1,0.,12.0,0.,12.0,0.,12.0,0.,12.0
1979-08-03 09:49:49.850 ,1,1,0.,12.0,0.,12.0,0.,12.0,0.,12.0
1979-08-03 09:50:01.850 ,1,0,0.,12.0,0.,12.0,0.,12.0,0.,12.0
1979-08-03 09:50:13.850 ,1,0,0.,12.0,0.,12.0,0.,12.0,0.,12.0
1979-08-03 09:50:25.850 ,2,1,0.,12.0,0.,12.0,0.,12.0,0.,12.0
1979-08-03 09:50:37.850 ,2,1,0.,12.0,0.,12.0,0.,12.0,0.,12.0
1979-08-03 09:50:49.850 ,2,0,0.,12.0,0.,12.0,0.,12.0,0.,12.0
1979-08-03 09:51:01.850 ,2,0,0.,12.0,0.,12.0,0.,12.0,0.,12.0
1979-08-03 09:51:13.850 ,3,1,0.,12.0,0.,12.0,0.,12.0,0.,12.0
1979-08-03 09:51:25.850 ,3,1,0.,12.0,0.,12.0,0.,12.0,0.,12.0
1979-08-03 09:51:37.850 ,3,0,0.,12.0,0.,12.0,0.,12.0,0.,12.0
1979-08-03 09:51:49.850 ,3,0,0.,12.0,0.,12.0,0.,12.0,0.,12.0
1979-08-03 09:52:01.850 ,4,1,0.,12.0,0.,12.0,0.,12.0,0.,12.0
1979-08-03 09:52:13.850 ,4,1,0.,12.0,0.,12.0,0.,12.0,0.,12.0
1979-08-03 09:52:25.850 ,4,0,0.,12.0,0.,12.0,0.,12.0,0.,12.0
1979-08-03 09:52:37.850 ,4,0,0.,12.0,0.,12.0,0.,12.0,0.,12.0
1979-08-03 09:52:49.850 ,5,1,0.,12.0,0.,12.0,0.,12.0,0.,12.0
1979-08-03 09:53:01.850 ,5,1,0.,12.0,0.,12.0,0.,12.0,0.,12.0
1979-08-03 09:53:13.850 ,5,0,0.,12.0,0.,12.0,0.,12.0,0.,12.0
1979-08-03 09:53:25.850 ,5,0,0.,12.0,0.,12.0,0.,12.0,0.,12.0
1979-08-03 09:53:37.850 ,6,1,0.,12.0,0.,12.0,0.,12.0,0.,12.0
1979-08-03 09:53:49.850 ,6,1,0.,12.0,0.,12.0,0.,12.0,0.,12.0
1979-08-03 09:54:01.850 ,6,0,0.,12.0,0.,12.0,0.,12.0,0.,12.0
1979-08-03 09:54:13.850 ,6,0,0.,12.0,0.,12.0,0.,12.0,0.,12.0
1979-08-03 09:54:25.850 ,7,0,0.,12.0,0.,12.0,0.,12.0,0.,12.0
1979-08-03 09:54:37.850 ,7,0,0.,12.0,0.,12.0,0.,12.0,0.,12.0
1979-08-03 09:54:49.850 ,7,0,0.,12.0,0.,12.0,0.,12.0,0.,12.0
1979-08-03 09:55:01.850 ,7,0,0.,12.0,0.,12.0,0.,12.0,0.,12.0
1979-08-03 09:55:13.850 ,4,1,0.,12.0,0.,12.0,0.,12.0,0.,12.0
1979-08-03 09:55:25.850 ,4,1,0.,12.0,0.,12.0,0.,12.0,0.,12.0
1979-08-03 09:55:37.850 ,0,1,0.,12.0,0.,12.0,0.,12.0,0.,12.0
1979-08-03 09:55:49.850 ,0,1,0.,12.0,0.,12.0,0.,12.0,0.,12.0
1979-08-03 09:56:01.850 ,3,1,0.,12.0,0.,12.0,0.,12.0,0.,12.0
1979-08-03 09:56:13.850 ,3,1,0.,12.0,0.,12.0,0.,12.0,0.,12.0
1979-08-03 09:56:25.850 ,7,1,0.,12.0,0.,12.0,0.,12.0,0.,12.0
1979-08-03 09:56:37.850 ,7,1,0.,12.0,0.,12.0,0.,12.0,0.,12.0
1979-08-03 09:56:49.850 ,4,1,0.,12.0,0.,12.0,0.,12.0,0.,12.0
1979-08-03 09:57:01.850 ,4,1,0.,12.0,0.,12.0,0.,12.0,0.,12.0
1979-08-03 09:57:13.850 ,0,1,,0,,0,,0,,0
1979-08-03 09:57:25.850 ,0,1,0.,12.0,0.,12.0,0.,12.0,0.,12.0
1979-08-03 09:57:37.850 ,3,1,0.,12.0,0.,12.0,0.,12.0,0.,12.0
1979-08-03 09:57:49.850 ,3,1,0.,12.0,0.,12.0,0.,12.0,0.,12.0
1979-08-03 09:58:01.850 ,7,1,0.,12.0,0.,12.0,0.,12.0,0.,12.0
1979-08-03 09:58:13.850 ,7,1,0.,12.0,0.,12.0,0.,12.0,0.,12.0
1979-08-03 09:58:25.850 ,4,1,0.,12.0,0.,12.0,0.,12.0,0.,12.0
1979-08-03 09:58:37.850 ,4,1,0.,12.0,0.,12.0,0.,12.0,0.,12.0
1979-08-03 09:58:49.850 ,0,1,0.,12.0,0.,12.0,0.,12.0,0.,12.0
1979-08-03 09:59:01.850 ,0,1,0.,12.0,0.,12.0,0.,12.0,0.,12.0
1979-08-03 09:59:13.850 ,3,1,0.,12.0,0.,12.0,0.,12.0,0.,12.0
1979-08-03 09:59:25.850 ,3,1,0.,12.0,0.,12.0,0.,12.0,0.,12.0
1979-08-03 09:59:37.850 ,7,1,0.,12.0,0.,12.0,0.,12.0,0.,12.0
1979-08-03 09:59:49.850 ,7,1,0.,12.0,0.,12.0,0.,12.0,0.,12.0
1979-08-03 10:00:01.850 ,4,1,0.,12.0,0.,12.0,0.,12.0,0.,12.0
1979-08-03 10:00:13.850 ,4,1,0.,12.0,0.,12.0,0.,12.0,0.,12.0
1979-08-03 10:00:25.850 ,0,1,0.,12.0,0.,12.0,0.,12.0,0.,12.0
1979-08-03 10:00:37.850 ,0,1,0.,12.0,0.,12.0,0.,12.0,0.,12.0
1979-08-03 10:00:49.850 ,3,1,0.,12.0,0.,12.0,0.,12.0,0.,12.0
1979-08-03 10:01:01.850 ,3,1,0.,12.0,0.,12.0,0.,12.0,0.,12.0
1979-08-03 10:01:13.850 ,7,1,0.,12.0,0.,12.0,0.,12.0,0.,12.0
1979-08-03 10:01:25.850 ,7,1,0.,12.0,0.,12.0,0.,12.0,0.,12.0
1979-08-03 10:01:37.850 ,4,1,0.,12.0,0.,12.0,0.,12.0,0.,12.0
1979-08-03 10:01:49.850 ,4,1,0.,12.0,0.,12.0,0.,12.0,0.,12.0
1979-08-03 10:02:01.850 ,0,1,0.,12.0,0.,12.0,0.,12.0,0.,12.0
1979-08-03 10:02:13.850 ,0,1,0.,12.0,0.,12.0,0.,12.0,0.,12.0
1979-08-03 10:02:25.850 ,3,1,0.,12.0,0.,12.0,0.,12.0,0.,12.0
1979-08-03 10:02:37.850 ,3,1,0.,12.0,0.,12.0,0.,12.0,0.,12.0
1979-08-03 10:02:49.850 ,7,1,0.,12.0,0.,12.0,0.,12.0,0.,12.0
1979-08-03 10:03:01.850 ,7,1,0.,12.0,0.,12.0,0.,12.0,0.,12.0
1979-08-03 10:03:13.850 ,4,1,0.,12.0,0.,12.0,0.,12.0,0.,12.0
1979-08-03 10:03:25.850 ,4,1,0.,12.0,0.,12.0,0.,12.0,0.,12.0
1979-08-03 10:03:37.850 ,2,1,0.,12.0,0.,12.0,0.,12.0,0.,12.0
1979-08-03 10:03:49.850 ,2,1,,0,,0,,0,,0
1979-08-03 10:04:03.050 ,3,1,0.,12.0,0.,12.0,0.,12.0,0.,12.0
1979-08-03 10:04:15.050 ,3,1,0.,12.0,0.,12.0,0.,12.0,0.,12.0
1979-08-03 10:04:25.850 ,7,1,0.,12.0,0.,12.0,0.,12.0,0.,12.0
1979-08-03 10:04:37.850 ,7,1,0.,12.0,0.,12.0,0.,12.0,0.,12.0
1979-08-03 10:04:49.850 ,0,0,0.,12.0,0.,12.0,0.,12.0,0.,12.0
1979-08-03 10:05:01.850 ,0,0,0.,12.0,0.,12.0,0.,12.0,0.,12.0
1979-08-03 10:05:13.850 ,0,0,0.,12.0,0.,12.0,0.,12.0,0.,12.0
1979-08-03 10:05:25.850 ,0,0,0.,12.0,0.,12.0,0.,12.0,0.,12.0
1979-08-03 10:05:37.850 ,0,0,0.,12.0,0.,12.0,0.,12.0,0.,12.0
1979-08-03 10:05:49.850 ,0,0,0.,12.0,0.,12.0,0.,12.0,0.,12.0
1979-08-03 10:06:01.850 ,0,0,0.,12.0,0.,12.0,0.,12.0,0.,12.0
1979-08-03 10:06:13.850 ,0,0,0.,12.0,0.,12.0,0.,12.0,0.,12.0
1979-08-03 10:06:25.850 ,5,1,0.,12.0,0.,12.0,0.,12.0,0.,12.0
1979-08-03 10:06:37.850 ,5,1,0.,12.0,0.,12.0,0.,12.0,0.,12.0
1979-08-03 10:06:49.850 ,5,0,0.,12.0,0.,12.0,0.,12.0,0.,12.0
1979-08-03 10:07:01.850 ,5,0,0.,12.0,0.,12.0,0.,12.0,0.,12.0
1979-08-03 10:07:13.850 ,4,1,0.,12.0,0.,12.0,0.,12.0,0.,12.0
1979-08-03 10:07:25.850 ,4,1,0.,12.0,0.,12.0,0.,12.0,0.,12.0
1979-08-03 10:07:37.850 ,4,0,0.,12.0,0.,12.0,0.,12.0,0.,12.0
1979-08-03 10:07:49.850 ,4,0,0.,12.0,0.,12.0,0.,12.0,0.,12.0
1979-08-03 10:08:01.850 ,3,1,0.,12.0,0.,12.0,0.,12.0,0.,12.0
1979-08-03 10:08:13.850 ,3,1,0.,12.0,0.,12.0,0.,12.0,0.,12.0
1979-08-03 10:08:25.850 ,3,0,0.,12.0,0.,12.0,0.,12.0,0.,12.0
1979-08-03 10:08:37.850 ,3,0,0.,12.0,0.,12.0,0.,12.0,0.,12.0
1979-08-03 10:08:49.850 ,2,1,0.,12.0,0.,12.0,0.,12.0,0.,12.0
1979-08-03 10:09:01.850 ,2,1,0.,12.0,0.,12.0,0.,12.0,0.,12.0
1979-08-03 10:09:13.850 ,2,0,0.,12.0,0.,12.0,0.,12.0,0.,12.0
1979-08-03 10:09:25.850 ,2,0,0.,12.0,0.,12.0,0.,12.0,0.,12.0
1979-08-03 10:09:37.850 ,1,1,0.,12.0,0.,12.0,0.,12.0,0.,12.0
1979-08-03 10:09:49.850 ,1,1,0.,12.0,0.,12.0,0.,12.0,0.,12.0
1979-08-03 10:10:01.850 ,1,0,0.,12.0,0.,12.0,0.,12.0,0.,12.0
1979-08-03 10:10:13.850 ,1,0,0.,12.0,0.,12.0,0.,12.0,0.,12.0
1979-08-03 10:10:25.850 ,0,1,0.,12.0,0.,12.0,0.,12.0,0.,12.0
1979-08-03 10:10:37.850 ,0,1,0.,12.0,0.,12.0,0.,12.0,0.,12.0
1979-08-03 10:10:49.850 ,0,0,,0,,0,,0,,0
1979-08-03 10:11:01.850 ,0,0,0.,12.0,0.,12.0,0.,12.0,0.,12.0
1979-08-03 10:11:13.850 ,0,1,0.,12.0,0.,12.0,0.,12.0,0.,12.0
1979-08-03 10:11:25.850 ,0,1,0.,12.0,0.,12.0,0.,12.0,0.,12.0
1979-08-03 10:11:37.850 ,0,0,0.,12.0,0.,12.0,0.,12.0,0.,12.0
1979-08-03 10:11:49.850 ,0,0,0.,12.0,0.,12.0,0.,12.0,0.,12.0
1979-08-03 10:12:04.250 ,1,1,0.,12.0,0.,12.0,0.,12.0,0.,12.0
1979-08-03 10:12:16.250 ,1,1,0.,12.0,0.,12.0,0.,12.0,0.,12.0
1979-08-03 10:12:25.850 ,1,0,0.,12.0,0.,12.0,0.,12.0,0.,12.0
1979-08-03 10:12:37.850 ,1,0,0.,12.0,0.,12.0,0.,12.0,0.,12.0
1979-08-03 10:12:49.850 ,2,1,0.,12.0,0.,12.0,0.,12.0,0.,12.0
1979-08-03 10:13:01.850 ,2,1,0.,12.0,0.,12.0,0.,12.0,0.,12.0
1979-08-03 10:13:13.850 ,2,0,0.,12.0,0.,12.0,0.,12.0,0.,12.0
1979-08-03 10:13:25.850 ,2,0,0.,12.0,0.,12.0,0.,12.0,0.,12.0
1979-08-03 10:13:37.850 ,3,1,0.,12.0,0.,12.0,0.,12.0,0.,12.0
1979-08-03 10:13:49.850 ,3,1,0.,12.0,0.,12.0,0.,12.0,0.,12.0
1979-08-03 10:14:01.850 ,3,0,0.,12.0,0.,12.0,0.,12.0,0.,12.0
1979-08-03 10:14:13.850 ,3,0,0.,12.0,0.,12.0,0.,12.0,0.,12.0
1979-08-03 10:14:25.850 ,4,1,0.,12.0,0.,12.0,0.,12.0,0.,12.0
1979-08-03 10:14:37.850 ,4,1,0.,12.0,0.,12.0,0.,12.0,0.,12.0
1979-08-03 10:14:49.850 ,4,0,,0,,0,,0,,0
1979-08-03 10:15:01.850 ,4,0,0.,12.0,0.,12.0,0.,12.0,0.,12.0
1979-08-03 10:15:13.850 ,5,1,0.,12.0,0.,12.0,0.,12.0,0.,12.0
1979-08-03 10:15:25.850 ,5,1,0.,12.0,0.,12.0,0.,12.0,0.,12.0
1979-08-03 10:15:37.850 ,5,0,0.,12.0,0.,12.0,0.,12.0,0.,12.0
1979-08-03 10:15:49.850 ,5,0,0.,12.0,0.,12.0,0.,12.0,0.,12.0
1979-08-03 10:16:01.850 ,6,1,0.,12.0,0.,12.0,0.,12.0,0.,12.0
1979-08-03 10:16:13.850 ,6,1,0.,12.0,0.,12.0,0.,12.0,0.,12.0
1979-08-03 10:16:25.850 ,6,0,0.,12.0,0.,12.0,0.,12.0,0.,12.0
1979-08-03 10:16:37.850 ,6,0,0.,12.0,0.,12.0,0.,12.0,0.,12.0
1979-08-03 10:16:49.850 ,7,1,0.,12.0,0.,12.0,0.,12.0,0.,12.0
1979-08-03 10:17:01.850 ,7,1,0.,12.0,0.,12.0,0.,12.0,0.,12.0
1979-08-03 10:17:13.850 ,7,0,0.,12.0,0.,12.0,0.,12.0,0.,12.0
1979-08-03 10:17:25.850 ,7,0,0.,12.0,0.,12.0,0.,12.0,0.,12.0
1979-08-03 10:17:37.850 ,7,1,0.,12.0,0.,12.0,0.,12.0,0.,12.0
1979-08-03 10:17:49.850 ,7,1,0.,12.0,0.,12.0,0.,12.0,0.,12.0
1979-08-03 10:18:01.850 ,7,0,0.,12.0,0.,12.0,0.,12.0,0.,12.0
1979-08-03 10:18:13.850 ,7,0,0.,12.0,0.,12.0,0.,12.0,0.,12.0
1979-08-03 10:18:25.850 ,6,1,0.,12.0,0.,12.0,0.,12.0,0.,12.0
1979-08-03 10:18:37.850 ,6,1,0.,12.0,0.,12.0,0.,12.0,0.,12.0